User: anonymous   Login
Location: Obersdorf
(47.4079°N, 10.2781°E)
Time: 13:22:01
(UTC+02:00)
Language:

Envisat - Orbit

View from above orbital plane
View from above orbital plane
View from above satellite
View from above satellite

Ground track
Ground track

The orbit data is extracted from the following two-line orbital elements,

1 27386U 02009A   21293.96837418  .00000055  00000-0  31762-4 0  9993
2 27386  98.1600 281.6788 0001221  90.5904 327.1951 14.38048521 29112
Epoch (UTC): 20 October 2021 23:14:27
Eccentricity: 0.0001221
inclination: 98.1600°
perigee height: 764 km
apogee height: 766 km
right ascension of ascending node: 281.6788°
argument of perigee: 90.5904°
revolutions per day: 14.38048521
mean anomaly at epoch: 327.1951°
orbit number at epoch: 2911

The dashed part of the orbit path shows where the satellite is in the earth's shadow,  

DLR